Inishmore Aerodrome


Codes: EIIM/IOR
Name: Inishmore Aerodrome
City: Inis Mor
Country: Ireland
Elevation: 24 ft.
Wikipedia:

Photos at Inishmore Aerodrome


   Photos courtesy of SpottingLog. You can add your own sightings and photos by signing up for a free trial today.



No photos found.

Weather at Inishmore Aerodrome


Time (UTC)DescriptionTempratureWindCloud coverageVisibilityPressureHumidity
15-Apr-2024 18:00Broken Clouds8°C34 mph, NW71%10000m1017hPa71%
15-Apr-2024 21:00Overcast Clouds9°C31 mph, NW88%10000m1020hPa74%
16-Apr-2024 00:00Overcast Clouds9°C31 mph, NW90%10000m1022hPa76%
16-Apr-2024 03:00Overcast Clouds9°C29 mph, NW100%10000m1022hPa70%
16-Apr-2024 06:00Overcast Clouds9°C29 mph, NW100%10000m1022hPa67%
16-Apr-2024 09:00Light Rain9°C22 mph, NW100%10000m1023hPa70%
16-Apr-2024 12:00Overcast Clouds9°C22 mph, NW100%10000m1024hPa67%
16-Apr-2024 15:00Overcast Clouds9°C25 mph, NW92%10000m1024hPa68%
16-Apr-2024 18:00Broken Clouds9°C22 mph, NW52%10000m1024hPa74%
16-Apr-2024 21:00Few Clouds9°C22 mph, NW16%10000m1025hPa71%
17-Apr-2024 00:00Scattered Clouds9°C22 mph, NW25%10000m1025hPa65%
17-Apr-2024 03:00Broken Clouds9°C20 mph, NW75%10000m1025hPa65%
17-Apr-2024 06:00Overcast Clouds9°C20 mph, NW88%10000m1024hPa78%
17-Apr-2024 09:00Light Rain10°C18 mph, W100%10000m1023hPa87%
17-Apr-2024 12:00Light Rain10°C22 mph, NW100%10000m1022hPa93%
17-Apr-2024 15:00Light Rain10°C25 mph, NW100%10000m1021hPa90%
17-Apr-2024 18:00Broken Clouds10°C22 mph, NW77%10000m1022hPa78%
17-Apr-2024 21:00Broken Clouds10°C18 mph, NW82%10000m1023hPa73%
18-Apr-2024 00:00Broken Clouds10°C18 mph, N82%10000m1024hPa71%
18-Apr-2024 03:00Overcast Clouds10°C16 mph, NW100%10000m1024hPa74%
18-Apr-2024 06:00Overcast Clouds10°C13 mph, N100%10000m1025hPa72%
18-Apr-2024 09:00Overcast Clouds10°C11 mph, NW100%10000m1026hPa75%
18-Apr-2024 12:00Overcast Clouds10°C13 mph, NW100%10000m1026hPa78%
18-Apr-2024 15:00Broken Clouds10°C16 mph, NW84%10000m1027hPa83%
18-Apr-2024 18:00Broken Clouds10°C13 mph, W63%10000m1027hPa86%
18-Apr-2024 21:00Broken Clouds10°C13 mph, W83%10000m1027hPa92%
19-Apr-2024 00:00Broken Clouds10°C16 mph, NW62%10000m1026hPa87%
19-Apr-2024 03:00Scattered Clouds10°C16 mph, NW40%10000m1026hPa88%
19-Apr-2024 06:00Scattered Clouds10°C13 mph, NW43%10000m1026hPa93%
19-Apr-2024 09:00Broken Clouds10°C9 mph, NW74%10000m1027hPa92%
19-Apr-2024 12:00Overcast Clouds10°C11 mph, W87%10000m1027hPa92%
19-Apr-2024 15:00Broken Clouds10°C13 mph, W78%10000m1027hPa93%
19-Apr-2024 18:00Scattered Clouds10°C13 mph, NW47%10000m1027hPa92%
19-Apr-2024 21:00Few Clouds10°C13 mph, NW18%10000m1028hPa92%
20-Apr-2024 00:00Scattered Clouds10°C9 mph, NW38%10000m1028hPa91%
20-Apr-2024 03:00Scattered Clouds11°C7 mph, NW36%10000m1028hPa88%
20-Apr-2024 06:00Scattered Clouds10°C7 mph, NW30%10000m1028hPa88%
20-Apr-2024 09:00Overcast Clouds10°C7 mph, W87%10000m1028hPa89%
20-Apr-2024 12:00Overcast Clouds10°C7 mph, W93%10000m1028hPa89%
20-Apr-2024 15:00Overcast Clouds10°C9 mph, W100%10000m1028hPa87%